Regional Weather Roundup
Issued by NWS Cleveland, OH

Home | Current Version | Previous Version | Graphics & Text | Print | Product List | Glossary On
Versions: 1 2 3 4 5 6 7 8 9 10 11 12 13 14 15 16 17 18 19 20 21 22 23 24 25 26 27 28 29 30 31 32 33 34 35 36 37 38 39 40 41 42 43 44 45 46 47 48 49 50
000
ASUS41 KCLE 050400
RWRCLE
OHIO REGIONAL WEATHER ROUNDUP
NATIONAL WEATHER SERVICE WILMINGTON, OH
1200 AM EDT TUE MAY 05 2015

NOTE: "FAIR" INDICATES FEW OR NO CLOUDS BELOW 12,000 FEET WITH NO
SIGNIFICANT WEATHER AND/OR OBSTRUCTIONS TO VISIBILITY.

OHZ001>008-015>018-024>027-034-035-043-044-050500-
   NORTHWEST OHIO

CITY           SKY/WX    TMP DP  RH WIND       PRES   REMARKS
DEFIANCE       CLOUDY    63  59  87 CALM      30.19S
FINDLAY        CLOUDY    61  57  87 SW3       30.19S FOG
TOLEDO EXPRESS CLOUDY    63  60  90 SW6       30.18F
TOLEDO EXEC    CLOUDY    62  57  83 SW6       30.19S
LIMA           CLOUDY    61  59  93 S7        30.20S FOG
$$

OHZ009>014-019>023-028>033-038-089-050500-
   NORTHEAST OHIO

CITY           SKY/WX    TMP DP  RH WIND       PRES   REMARKS
CLE-HOPKINS    CLOUDY    62  57  83 S5        30.22R
CLE-LAKEFRONT  CLOUDY    66  57  72 SW7       30.18S
CUY CO. ARPT   NOT AVBL
LORAIN-ELYRIA  CLOUDY    59  57  93 S5        30.20S
ASHTABULA      MOCLDY    57  55  93 CALM      30.21S FOG
AKRON-CANTON   MOCLDY    61  58  90 S3        30.21F
WOOSTER        MOCLDY    57  57 100 CALM      30.21S FOG
MANSFIELD      CLOUDY    61  60  97 S3        30.21S
YOUNGSTOWN     MOCLDY    60  58  92 SW3       30.21S
$$

OHZ042-051>053-060>062-070>072-077>081-050500-
  SOUTHWEST OHIO

CITY           SKY/WX    TMP DP  RH WIND       PRES   REMARKS
CINC-COVINGTON CLOUDY    66  57  72 S6        30.20S
CINC-LUNKEN    CLOUDY    63  59  87 CALM      30.20S
HAMILTON       CLOUDY    69  60  73 N9        30.21R
DAYTON         NOT AVBL
WRIGHT-PAT AFB LGT RAIN  66  61  82 W12       30.22R
DAYTON GENERAL CLOUDY    68  58  70 NW13G26   30.23R
WILMINGTON     PTCLDY    60  53  77 CALM      30.21S
$$

OHZ036-037-039>041-045>050-054>059-063>069-073>076-082>088-050500-
  CENTRAL AND SOUTHEAST OHIO

CITY           SKY/WX    TMP DP  RH WIND       PRES   REMARKS
COLUMBUS       CLOUDY    63  61  93 CALM      30.21R
OSU AIRPORT    FOG       61  60  97 NE3       30.21R VSB 1
BOLTON FIELD   NOT AVBL
RICKENBACK AFB NOT AVBL
NEWARK         MOCLDY    62  60  93 CALM      30.20S FOG
MARION         CLOUDY    61  59  93 CALM      30.20S FOG
LANCASTER      MOCLDY    60  58  92 CALM      30.22R FOG
ZANESVILLE     CLOUDY    61  59  93 S3        30.21S FOG
NEW PHILLY     CLOUDY    64  61  90 CALM      30.22S FOG
$$


USA.gov is the U.S. government's official web portal to all federal, state and local government web resources and services.